Location: North Evanston
(42.0634°N, 87.6976°W)
Time: 20:46:18
(UTC+00:00)

Injun/Solrad 3 - Pass Details

Date: 11 May 2026
Orbit: 867 x 989 km, 66.8° (Epoch: 6 June)

Event Time Altitude Azimuth Distance (km) Brightness Sun altitude
Rises 21:42:06 0° 196° (SSW) 3,487 11.2 35.0°
Reaches altitude 10° 21:44:35 10° 192° (SSW) 2,567 10.5 34.6°
Maximum altitude 21:50:26 59° 115° (ESE) 1,055 8.4 33.5°
Drops below altitude 10° 21:56:30 10° 37° (NE) 2,667 10.0 32.4°
Sets 21:59:07 0° 34° (NE) 3,634 10.7 31.9°
